Hourly Data Report for April 08, 2017

CLYDE RIVER A
NUNAVUT

70°29'09.000" N
68°31'01.000" W
26.50 m
2400804
71090
YCY

Download Data

Hourly Data (April 2017)
Hourly Data Report for April 8, 2017
TIME
LST
Temp Definition
°C
Dew Point Definition
°C
Rel Hum Definition
%
Precip. Amount Definition
mm

Wind Dir Definition
10's deg

Wind Spd Definition
km/h
Visibility Definition
km
Stn Press Definition
kPa
Hmdx Definition


Wind Chill Definition


Weather Definition


00:00 -16.3 -18.0 87 0.0 16 9 12.9 101.36   -22 LegendNANA
01:00 -16.7 -18.4 87 0.0 13 9 0.6 101.38   -23 Moderate Snow
02:00 -17.3 -19.1 86 0.0 9 5 0.6 101.38   -21 Freezing Fog
03:00 -17.8 -19.6 86 0.0 13 9 1.2 101.41   -24 Fog
04:00 -18.0 -19.8 86 0.0 15 9 0.6 101.42   -24 Freezing Fog
05:00 -16.9 -18.6 87 0.0 15 17 2.0 101.42   -26 Snow
06:00 -16.0 -17.6 88 0.0 14 17 0.4 101.40   -25 Heavy Snow
07:00 -15.7 -17.3 88 0.0 18 15 2.0 101.38   -24 Snow
08:00 -15.0 -16.6 88 0.0 14 22 1.6 101.34   -25 Snow
09:00 -14.5 -16.1 88 0.0 13 17 2.0 101.31   -23 Snow
10:00 -15.4 -17.0 88 0.0 13 15 16.1 101.28   -23 LegendNANA
11:00 -15.4 -17.1 87 0.0 14 17 16.1 101.26   -24 LegendNANA
12:00 -15.0 -16.6 88 0.0 13 13 16.1 101.26   -22 LegendNANA
13:00 -14.0 -15.4 89 0.0 15 18 16.1 101.22   -22 Snow
14:00 -13.8 -15.2 89 0.0 14 18 16.1 101.23   -22 LegendNANA
15:00 -13.1 -14.4 90 0.0 15 21 16.1 101.23   -22 Snow
16:00 -13.0 -14.4 89 0.0 14 24 16.1 101.22   -22 LegendNANA
17:00 -13.5 -14.9 89 0.0 13 22 16.1 101.19   -23 LegendNANA
18:00 -14.0 -15.4 89 0.0 12 21 16.1 101.17   -23 LegendNANA
19:00 -14.4 -15.8 89 0.0 13 32 16.1 101.10   -26 LegendNANA
20:00 -15.4 -16.9 89 0.0 13 26 16.1 101.09   -26 LegendNANA
21:00 -16.2 -17.8 88 0.0 13 18 16.1 101.07   -25 LegendNANA
22:00 -16.6 -18.3 87 0.0 13 30 4.8 101.02   -28 Snow
23:00 -16.1 -17.8 87 0.0 15 22 6.4 101.02   -26 Snow

Notes on Data Quality.

Legend

  • E = Estimated
  • M = Missing
  • NA = Not Available*
  • [empty] = Indicates an unobserved value
Date modified: